Tracking 28790 objects as of 19-Apr-2024
HD Live streaming from Space Station
objects crossing your sky now

SL-14 DEB

Track SL-14 DEB now!
10-day predictions


NORAD ID: 26000
Int'l Code: 1991-068K
Perigee: 1,455.1 km
Apogee: 1,527.9 km
Inclination: 82.7 °
Period: 115.6 minutes
Semi major axis: 7862 km
RCS: 0.0322 m2 (small)
Launch date: September 28, 1991
Source: Commonwealth of Independent States (former USSR) (CIS)
Launch site: PLESETSK MISSILE AND SPACE COMPLEX (PKMTR)

Note: This is SATELLITE DEBRIS
Your satellite tracking list
Your tracking list is empty




NASA's NSSDC Master Catalog

Two Line Element Set (TLE):
1 26000U 91068K   24109.35980226  .00000207  00000-0  13703-2 0  9998
2 26000  82.7205  69.2663 0046301  65.6042  87.8169 12.45274783105427
Source of the keplerian elements: AFSPC